• In Austria
  • List of Countries
  • For 7 days
  • Water Temperature
  • Satellite Maps
  • Weather Map
  • News
  • Weather Widgets
  • user-avatar
    Login

    Hourly Weather Smolan

    Today, 18 August, Saturday

    Time Temperature Precipitation Wind Pressure Humidity
    00:00 +14°C° 0 mm 3 mps 656 mmHg 68%
    01:00 +14°C° 0 mm 3 mps 656 mmHg 69%
    02:00 +14°C° 0 mm 3 mps 656 mmHg 71%
    03:00 +13°C° 0 mm 3 mps 656 mmHg 70%
    04:00 +13°C° 0 mm 3 mps 656 mmHg 70%
    05:00 +13°C° 0 mm 3 mps 656 mmHg 69%
    06:00 +16°C° 0 mm 3 mps 657 mmHg 63%
    07:00 +18°C° 0 mm 3 mps 657 mmHg 56%
    08:00 +20°C° 0 mm 3 mps 658 mmHg 50%
    09:00 +21°C° 0 mm 4 mps 659 mmHg 45%
    10:00 +23°C° 0 mm 4 mps 659 mmHg 39%
    11:00 +26°C° 0 mm 5 mps 659 mmHg 34%
    12:00 +26°C° 0 mm 5 mps 659 mmHg 33%
    13:00 +27°C° 0 mm 5 mps 659 mmHg 32%
    14:00 +27°C° 0 mm 5 mps 659 mmHg 32%
    15:00 +27°C° 0 mm 5 mps 659 mmHg 34%
    16:00 +26°C° 0 mm 5 mps 659 mmHg 37%
    17:00 +25°C° 0 mm 5 mps 658 mmHg 39%
    18:00 +22°C° 0 mm 4 mps 658 mmHg 44%
    19:00 +20°C° 0 mm 4 mps 658 mmHg 49%
    20:00 +18°C° 0 mm 3 mps 657 mmHg 54%
    21:00 +18°C° 0 mm 3 mps 657 mmHg 56%
    22:00 +17°C° 0 mm 3 mps 658 mmHg 57%
    23:00 +17°C° 0 mm 3 mps 658 mmHg 59%

    Tomorrow, 19 August, Sunday

    Time Temperature Precipitation Wind Pressure Humidity
    00:00 +16°C° 0 mm 3 mps 658 mmHg 61%
    01:00 +16°C° 0 mm 3 mps 658 mmHg 63%
    02:00 +14°C° 0 mm 3 mps 658 mmHg 65%
    03:00 +14°C° 0 mm 3 mps 657 mmHg 66%
    04:00 +14°C° 0 mm 3 mps 657 mmHg 66%
    05:00 +13°C° 0 mm 3 mps 657 mmHg 67%
    06:00 +16°C° 0 mm 3 mps 658 mmHg 60%
    07:00 +18°C° 0 mm 3 mps 658 mmHg 52%
    08:00 +20°C° 0 mm 3 mps 659 mmHg 45%
    09:00 +22°C° 0 mm 4 mps 660 mmHg 40%
    10:00 +23°C° 0 mm 4 mps 660 mmHg 35%
    11:00 +26°C° 0 mm 5 mps 660 mmHg 31%
    12:00 +26°C° 0 mm 5 mps 660 mmHg 30%
    13:00 +27°C° 0 mm 5 mps 660 mmHg 28%
    14:00 +28°C° 0 mm 5 mps 660 mmHg 27%
    15:00 +27°C° 0 mm 5 mps 659 mmHg 30%
    16:00 +26°C° 0 mm 4 mps 659 mmHg 32%
    17:00 +25°C° 0 mm 4 mps 659 mmHg 35%
    18:00 +22°C° 0 mm 3 mps 658 mmHg 40%
    19:00 +20°C° 0 mm 3 mps 658 mmHg 45%
    20:00 +18°C° 0 mm 2 mps 657 mmHg 50%
    21:00 +17°C° 0 mm 2 mps 657 mmHg 51%
    22:00 +17°C° 0 mm 2 mps 657 mmHg 52%
    23:00 +16°C° 0 mm 2 mps 657 mmHg 54%

    Day after tomorrow, 20 August, Monday

    Time Temperature Precipitation Wind Pressure Humidity
    00:00 +16°C° 0 mm 2 mps 657 mmHg 56%
    01:00 +15°C° 0 mm 2 mps 657 mmHg 58%
    02:00 +15°C° 0 mm 2 mps 656 mmHg 60%
    03:00 +14°C° 0 mm 2 mps 656 mmHg 63%
    04:00 +14°C° 0 mm 2 mps 656 mmHg 66%
    05:00 +13°C° 0 mm 3 mps 656 mmHg 69%
    06:00 +16°C° 0 mm 3 mps 656 mmHg 64%
    07:00 +17°C° 0 mm 3 mps 657 mmHg 59%
    08:00 +19°C° 0 mm 4 mps 658 mmHg 55%
    09:00 +20°C° 0 mm 4 mps 658 mmHg 47%
    10:00 +22°C° 0 mm 4 mps 658 mmHg 40%
    11:00 +23°C° 0 mm 5 mps 659 mmHg 33%
    12:00 +25°C° 0 mm 5 mps 659 mmHg 30%
    13:00 +25°C° 0 mm 5 mps 659 mmHg 28%
    14:00 +26°C° 0 mm 5 mps 659 mmHg 26%
    15:00 +26°C° 0 mm 5 mps 658 mmHg 27%
    16:00 +25°C° 0 mm 5 mps 658 mmHg 28%
    17:00 +25°C° 0 mm 4 mps 658 mmHg 29%
    18:00 +21°C° 0 mm 4 mps 657 mmHg 35%
    19:00 +19°C° 0 mm 3 mps 657 mmHg 41%
    20:00 +16°C° 0 mm 3 mps 656 mmHg 47%
    21:00 +14°C° 0 mm 3 mps 656 mmHg 52%
    22:00 +14°C° 0 mm 2 mps 656 mmHg 56%
    23:00 +13°C° 0 mm 2 mps 656 mmHg 61%

    21 August, Tuesday

    Time Temperature Precipitation Wind Pressure Humidity
    00:00 +13°C° 0 mm 2 mps 656 mmHg 64%
    01:00 +12°C° 0 mm 2 mps 656 mmHg 68%
    02:00 +12°C° 0 mm 2 mps 656 mmHg 72%
    03:00 +12°C° 0 mm 2 mps 656 mmHg 72%
    04:00 +10°C° 0 mm 2 mps 656 mmHg 72%
    05:00 +10°C° 0 mm 3 mps 655 mmHg 72%
    06:00 +13°C° 0 mm 2 mps 656 mmHg 65%
    07:00 +15°C° 0 mm 2 mps 657 mmHg 57%
    08:00 +17°C° 0 mm 2 mps 658 mmHg 49%
    09:00 +19°C° 0 mm 2 mps 658 mmHg 42%
    10:00 +20°C° 0 mm 3 mps 659 mmHg 35%
    11:00 +22°C° 0 mm 3 mps 659 mmHg 27%
    12:00 +24°C° 0 mm 3 mps 659 mmHg 26%
    13:00 +25°C° 0 mm 3 mps 659 mmHg 24%
    14:00 +26°C° 0 mm 3 mps 659 mmHg 22%
    15:00 +25°C° 0 mm 3 mps 659 mmHg 23%
    16:00 +25°C° 0 mm 3 mps 659 mmHg 24%
    17:00 +25°C° 0 mm 3 mps 659 mmHg 26%
    18:00 +21°C° 0 mm 3 mps 658 mmHg 31%
    19:00 +19°C° 0 mm 2 mps 658 mmHg 36%
    20:00 +16°C° 0 mm 2 mps 657 mmHg 41%
    21:00 +15°C° 0 mm 2 mps 657 mmHg 43%
    22:00 +15°C° 0 mm 2 mps 657 mmHg 46%
    23:00 +14°C° 0 mm 2 mps 657 mmHg 48%

    22 August, Wednesday

    Time Temperature Precipitation Wind Pressure Humidity
    00:00 +13°C° 0 mm 2 mps 657 mmHg 51%
    01:00 +13°C° 0 mm 2 mps 657 mmHg 53%
    02:00 +13°C° 0 mm 2 mps 657 mmHg 56%
    03:00 +12°C° 0 mm 2 mps 657 mmHg 58%
    04:00 +12°C° 0 mm 2 mps 657 mmHg 61%
    05:00 +12°C° 0 mm 2 mps 656 mmHg 64%
    06:00 +14°C° 0 mm 2 mps 657 mmHg 58%
    07:00 +16°C° 0 mm 2 mps 658 mmHg 53%
    08:00 +18°C° 0 mm 2 mps 659 mmHg 47%
    09:00 +20°C° 0 mm 2 mps 659 mmHg 40%
    10:00 +23°C° 0 mm 2 mps 659 mmHg 34%
    11:00 +24°C° 0 mm 2 mps 660 mmHg 27%
    12:00 +25°C° 0 mm 3 mps 660 mmHg 25%
    13:00 +26°C° 0 mm 3 mps 660 mmHg 24%
    14:00 +27°C° 0 mm 3 mps 659 mmHg 22%
    15:00 +26°C° 0 mm 3 mps 659 mmHg 23%
    16:00 +26°C° 0 mm 3 mps 659 mmHg 23%
    17:00 +26°C° 0 mm 3 mps 659 mmHg 24%
    18:00 +23°C° 0 mm 2 mps 658 mmHg 28%
    19:00 +19°C° 0 mm 2 mps 657 mmHg 32%
    20:00 +17°C° 0 mm 2 mps 657 mmHg 36%
    21:00 +16°C° 0 mm 2 mps 657 mmHg 38%
    22:00 +15°C° 0 mm 2 mps 657 mmHg 40%
    23:00 +14°C° 0 mm 2 mps 657 mmHg 42%

    23 August, Thursday

    Time Temperature Precipitation Wind Pressure Humidity
    00:00 +14°C° 0 mm 2 mps 656 mmHg 44%
    01:00 +14°C° 0 mm 2 mps 656 mmHg 47%
    02:00 +13°C° 0 mm 2 mps 656 mmHg 49%
    03:00 +13°C° 0 mm 2 mps 656 mmHg 51%
    04:00 +13°C° 0 mm 2 mps 655 mmHg 53%
    05:00 +12°C° 0 mm 2 mps 655 mmHg 55%
    06:00 +14°C° 0 mm 2 mps 656 mmHg 51%
    07:00 +16°C° 0 mm 2 mps 657 mmHg 47%
    08:00 +18°C° 0 mm 2 mps 657 mmHg 43%
    09:00 +20°C° 0 mm 2 mps 658 mmHg 38%
    10:00 +23°C° 0 mm 2 mps 658 mmHg 32%
    11:00 +25°C° 0 mm 2 mps 658 mmHg 26%
    12:00 +26°C° 0 mm 2 mps 658 mmHg 25%
    13:00 +26°C° 0 mm 3 mps 658 mmHg 24%
    14:00 +27°C° 0 mm 3 mps 658 mmHg 23%
    15:00 +27°C° 0 mm 3 mps 658 mmHg 24%
    16:00 +26°C° 0 mm 3 mps 657 mmHg 25%
    17:00 +26°C° 0 mm 3 mps 657 mmHg 27%
    18:00 +23°C° 0 mm 2 mps 657 mmHg 31%
    19:00 +20°C° 0 mm 2 mps 656 mmHg 36%
    20:00 +17°C° 0 mm 2 mps 656 mmHg 40%
    21:00 +17°C° 0 mm 2 mps 656 mmHg 41%
    22:00 +16°C° 0 mm 2 mps 656 mmHg 42%
    23:00 +15°C° 0 mm 2 mps 655 mmHg 43%
    Show more